CAPE
0 0 0 0 0 0 0 0 0 0 0 0 0 0 0 0 0 0 0 0 0 0 0 0 0 0 0 0 536 705 732 524 510 650 803 894 634 698 302 74 2 0 0
0 0 0 0 0 0 0 0 0 0 0 0 0 0 0 0 0 0 0 0 0 0 0 0 0 0 0 0 0 246 725 552 605 465 370 672 703 644 543 242 55 0 0
0 0 0 0 0 0 0 0 0 0 0 0 0 0 0 0 0 0 0 0 0 0 0 0 0 0 0 0 0 0 254 781 569 662 403 230 445 695 532 503 250 6 0
0 0 0 0 0 0 0 0 0 0 0 0 0 0 0 0 0 0 0 0 0 0 0 0 0 0 0 0 0 0 0 503 800 550 748 427 266 353 635 590 557 178 15
0 0 0 0 0 0 0 0 0 0 0 0 0 0 0 0 0 0 0 0 0 0 0 0 0 0 0 0 0 0 0 0 622 913 734 673 365 149 763 474 630 510 147
0 0 0 0 0 0 0 0 0 0 0 0 0 0 0 0 0 0 0 0 0 0 0 0 0 0 0 0 0 0 0 0 3 944 1012 750 606 239 314 841 508 672 456
0 0 0 0 0 0 0 0 0 0 0 0 0 0 0 0 0 0 0 0 0 0 0 0 0 0 0 0 0 0 0 0 0 24 918 1077 949 570 185 750 741 576 639
0 0 0 0 0 0 0 0 0 0 0 0 0 0 0 0 0 0 0 0 0 0 0 0 0 0 0 0 0 0 0 0 0 0 198 783 888 849 506 220 887 758 630
0 0 0 0 0 0 0 0 0 0 0 0 0 0 0 0 0 0 0 0 0 0 0 0 0 0 0 0 0 0 0 0 0 0 0 17 686 727 725 469 365 934 769
0 0 0 0 0 0 0 0 0 0 0 0 0 0 0 0 0 0 0 0 0 0 0 0 0 0 0 0 0 0 0 0 0 0 0 0 0 590 746 675 432 455 939
0 0 0 0 0 0 0 0 0 0 0 0 0 0 0 0 0 0 0 0 0 0 0 0 0 0 0 0 0 0 0 0 0 0 0 0 0 0 470 601 619 441 763
0 0 0 0 0 0 0 0 0 0 0 0 0 0 0 0 0 0 0 0 0 0 0 0 0 0 0 0 0 0 0 0 0 0 0 0 0 0 0 285 588 577 514
0 0 0 0 0 0 0 0 0 0 0 0 0 0 0 0 0 0 0 0 0 0 0 0 0 0 0 0 0 0 0 0 0 0 0 0 0 0 0 0 264 541 590
0 0 0 0 0 0 0 0 0 0 0 0 0 0 0 0 0 0 0 0 0 0 0 0 0 0 0 0 0 0 0 0 0 0 0 0 0 0 0 0 17 252 452
0 0 0 0 0 0 0 0 0 0 0 0 0 0 0 0 0 2 6 8 9 3 0 0 1 0 0 2 2 1 0 0 0 0 0 0 0 0 0 0 3 65 202
0 0 0 0 0 0 0 0 0 0 0 0 0 0 2 4 1 3 1 0 0 0 0 1 0 0 0 1 5 5 1 0 0 1 23 12 8 0 0 0 0 0 77
0 0 0 0 0 0 0 0 0 0 0 2 2 1 0 1 0 0 0 0 0 0 0 1 1 2 0 0 0 7 6 5 2 0 6 17 8 0 0 0 0 0 7
0 0 0 0 0 0 0 0 0 0 3 1 0 1 0 0 0 0 1 0 1 1 2 2 2 2 1 0 0 1 10 9 6 7 0 37 17 10 0 0 0 0 0
0 0 0 0 0 0 0 0 3 1 0 3 2 0 0 0 0 0 0 0 0 0 0 4 2 0 0 0 0 0 0 6 3 0 2 8 15 11 0 0 0 0 0
0 0 0 0 0 0 1 1 0 0 2 6 2 0 0 1 0 0 0 1 0 1 1 1 1 0 0 0 4 1 4 0 5 1 1 4 7 1 0 0 0 0 0
0 0 0 0 0 0 1 2 6 10 7 10 18 11 8 5 7 13 1 0 0 0 2 1 1 2 3 0 0 4 6 11 7 12 17 5 11 2 0 0 0 0 0
0 0 0 0 1 0 2 15 25 19 23 26 32 27 13 10 12 21 44 47 43 0 3 0 1 2 1 0 0 2 3 19 23 11 3 17 24 27 31 0 0 0 0
0 0 0 1 0 1 9 24 31 27 25 17 21 12 6 7 18 5 3 5 21 37 72 2 2 2 3 0 0 0 1 5 0 0 6 6 24 20 23 43 7 0 0
0 0 0 1 5 3 13 26 34 19 16 7 9 11 9 7 3 11 6 3 1 1 2 8 9 1 4 6 3 0 5 2 7 4 10 24 9 32 36 23 54 20 6
1 0 2 1 2 4 12 24 18 19 6 5 0 12 3 2 8 19 17 37 3 1 2 15 36 23 14 6 5 3 3 4 2 0 1 12 0 0 11 24 50 12 20
0 2 0 5 1 2 5 12 18 9 9 8 1 4 0 7 34 29 19 7 4 0 1 2 2 9 26 10 21 8 0 3 6 8 0 8 0 5 9 1 16 5 10
CIN
-0 -0 -0 -0 -0 -0 -0 -0 -0 -0 -0 -0 -0 -0 -0 -0 -0 -0 -0 -0 -0 -0 -0 -0 -0 -0 -0 -0 -29 -4 -0 -1 -1 -0 -1 -0 -2 -0 -13 -94 -106 -0 -0
-0 -0 -0 -0 -0 -0 -0 -0 -0 -0 -0 -0 -0 -0 -0 -0 -0 -0 -0 -0 -0 -0 -0 -0 -0 -0 -0 -0 -0 -92 -5 -3 -1 -3 -14 -1 -1 -1 -0 -21 -96 -0 -0
-0 -0 -0 -0 -0 -0 -0 -0 -0 -0 -0 -0 -0 -0 -0 -0 -0 -0 -0 -0 -0 -0 -0 -0 -0 -0 -0 -0 -0 -0 -81 -3 -2 -1 -5 -24 -4 -0 -2 -0 -14 -38 -0
-0 -0 -0 -0 -0 -0 -0 -0 -0 -0 -0 -0 -0 -0 -0 -0 -0 -0 -0 -0 -0 -0 -0 -0 -0 -0 -0 -0 -0 -0 -0 -22 -2 -3 -0 -5 -11 -8 -0 -0 -0 -23 -96
-0 -0 -0 -0 -0 -0 -0 -0 -0 -0 -0 -0 -0 -0 -0 -0 -0 -0 -0 -0 -0 -0 -0 -0 -0 -0 -0 -0 -0 -0 -0 -0 -6 -0 -1 -1 -7 -25 -1 -2 -0 -0 -28
-0 -0 -0 -0 -0 -0 -0 -0 -0 -0 -0 -0 -0 -0 -0 -0 -0 -0 -0 -0 -0 -0 -0 -0 -0 -0 -0 -0 -0 -0 -0 -0 -7 -0 -0 -2 -2 -10 -6 -0 -1 -0 -3
-0 -0 -0 -0 -0 -0 -0 -0 -0 -0 -0 -0 -0 -0 -0 -0 -0 -0 -0 -0 -0 -0 -0 -0 -0 -0 -0 -0 -0 -0 -0 -0 -0 -28 -0 -0 -0 -0 -15 -0 -0 -0 -0
-0 -0 -0 -0 -0 -0 -0 -0 -0 -0 -0 -0 -0 -0 -0 -0 -0 -0 -0 -0 -0 -0 -0 -0 -0 -0 -0 -0 -0 -0 -0 -0 -0 -0 -9 -0 -0 -0 -0 -15 -0 -0 -0
-0 -0 -0 -0 -0 -0 -0 -0 -0 -0 -0 -0 -0 -0 -0 -0 -0 -0 -0 -0 -0 -0 -0 -0 -0 -0 -0 -0 -0 -0 -0 -0 -0 -0 -0 -0 -0 -0 -0 -2 -5 -0 -0
-0 -0 -0 -0 -0 -0 -0 -0 -0 -0 -0 -0 -0 -0 -0 -0 -0 -0 -0 -0 -0 -0 -0 -0 -0 -0 -0 -0 -0 -0 -0 -0 -0 -0 -0 -0 -0 -0 -0 -0 -3 -2 -0
-0 -0 -0 -0 -0 -0 -0 -0 -0 -0 -0 -0 -0 -0 -0 -0 -0 -0 -0 -0 -0 -0 -0 -0 -0 -0 -0 -0 -0 -0 -0 -0 -0 -0 -0 -0 -0 -0 -0 -0 -0 -1 -0
-0 -0 -0 -0 -0 -0 -0 -0 -0 -0 -0 -0 -0 -0 -0 -0 -0 -0 -0 -0 -0 -0 -0 -0 -0 -0 -0 -0 -0 -0 -0 -0 -0 -0 -0 -0 -0 -0 -0 -0 -0 -0 -0
-0 -0 -0 -0 -0 -0 -0 -0 -0 -0 -0 -0 -0 -0 -0 -0 -0 -0 -0 -0 -0 -0 -0 -0 -0 -0 -0 -0 -0 -0 -0 -0 -0 -0 -0 -0 -0 -0 -0 -0 -0 -0 -0
-0 -0 -0 -0 -0 -0 -0 -0 -0 -0 -0 -0 -0 -0 -0 -0 -0 -0 -0 -0 -0 -0 -0 -0 -0 -0 -0 -0 -0 -0 -0 -0 -0 -0 -0 -0 -0 -0 -0 -0 -29 -0 -0
-0 -0 -0 -0 -0 -0 -0 -0 -0 -0 -0 -0 -0 -0 -0 -0 -1 -0 -0 -1 -0 -0 -0 -0 -1 -0 -0 -1 -1 -0 -0 -0 -0 -0 -0 -0 -0 -0 -0 -0 -25 -14 -0
-0 -0 -0 -0 -0 -0 -0 -0 -0 -0 -0 -0 -0 -0 -1 -0 -2 -1 -2 -3 -0 -0 -0 -0 -0 -0 -1 -2 -1 -0 -0 -0 -0 -2 -1 -1 -1 -0 -0 -0 -0 -13 -18
-0 -0 -0 -0 -0 -0 -0 -0 -0 -0 -0 -0 -0 -1 -3 -1 -0 -0 -0 -0 -0 -3 -2 -1 -1 -1 -0 -0 -0 -1 -1 -1 -0 -0 -1 -1 -4 -0 -0 -0 -0 -0 -72
-0 -0 -0 -0 -0 -0 -0 -0 -0 -0 -1 -1 -1 -2 -3 -0 -0 -2 -0 -0 -0 -0 -0 -3 -7 -5 -3 -0 -0 -3 -0 -1 -2 -0 -0 -0 -3 -2 -0 -0 -0 -0 -0
-0 -0 -0 -0 -0 -0 -0 -0 -1 -1 -0 -0 -2 -0 -0 -0 -0 -0 -1 -0 -0 -0 -0 -1 -2 -1 -6 -8 -0 -0 -1 -1 -2 -0 -7 -8 -2 -2 -0 -0 -0 -0 -0
-0 -0 -0 -0 -0 -0 -0 -0 -3 -0 -0 -2 -4 -5 -0 -0 -0 -0 -1 -0 -0 -0 -0 -0 -0 -0 -0 -7 -10 -1 -1 -3 -0 -0 -1 -1 -1 -1 -0 -0 -0 -0 -0
-0 -0 -0 -0 -0 -1 -2 -2 -0 -1 -3 -0 -0 -1 -6 -0 -1 -2 -0 -0 -0 -0 -0 -0 -0 -0 -0 -3 -1 -4 -0 -2 -2 -1 -0 -1 -1 -1 -0 -0 -0 -0 -0
-0 -0 -0 -0 -1 -0 -1 -0 -1 -0 -0 -0 -0 -0 -3 -0 -2 -1 -1 -1 -1 -0 -0 -0 -0 -0 -0 -0 -0 -5 -0 -0 -0 -1 -6 -1 -0 -1 -1 -0 -0 -0 -0
-0 -0 -0 -2 -0 -2 -1 -1 -0 -0 -0 -1 -0 -0 -2 -0 -1 -2 -1 -2 -1 -1 -0 -0 -0 -0 -0 -0 -0 -0 -0 -2 -0 -3 -2 -4 -2 -4 -3 -0 -0 -0 -0
-0 -0 -2 -2 -0 -1 -1 -0 -0 -0 -0 -1 -4 -0 -1 -0 -0 -0 -0 -0 -0 -0 -0 -0 -1 -0 -0 -0 -0 -0 -0 -2 -2 -8 -7 -0 -5 -3 -1 -3 -1 -1 -2
-1 -2 -1 -1 -1 -1 -0 -0 -0 -0 -0 -1 -0 -0 -1 -0 -0 -0 -0 -0 -1 -0 -0 -0 -0 -0 -0 -0 -0 -0 -1 -0 -0 -0 -3 -1 -0 -0 -18 -1 -2 -12 -12
-0 -1 -0 -0 -3 -0 -0 -0 -0 -0 -0 -0 -1 -0 -0 -0 -0 -0 -2 -6 -0 -3 -0 -0 -1 -0 -0 -0 -0 -0 -0 -0 -0 -0 -0 -0 -0 -3 -1 -16 -5 -15 -17
Wind_Speed
20 21 22 23 24 25 27 28 29 29 30 30 30 31 31 31 31 30 30 28 27 29 30 29 28 27 25 23 22 16 14 13 13 13 12 12 7 6 6 6 6 6 6
20 21 22 24 25 26 28 29 30 31 31 32 32 32 32 32 32 32 31 32 29 29 29 31 30 29 28 27 25 24 19 15 15 14 14 14 11 8 7 6 6 5 5
20 21 23 25 27 28 29 30 31 32 33 33 34 33 33 33 33 33 32 32 32 30 27 28 31 31 30 29 28 26 26 20 17 16 17 16 16 13 10 8 7 6 5
21 22 24 26 28 29 30 32 33 34 35 35 36 35 35 35 35 35 34 32 32 32 32 31 30 29 33 31 29 28 27 26 21 20 18 17 18 18 14 11 10 8 8
21 23 25 27 29 30 31 33 34 35 37 37 37 36 37 36 35 35 35 34 33 31 30 32 28 29 31 31 31 31 30 28 27 23 22 20 19 18 18 15 14 12 10
22 25 26 28 30 32 33 35 36 36 38 38 39 40 38 37 37 36 35 34 33 32 31 29 30 31 29 28 31 33 33 32 31 29 24 23 22 21 21 18 17 16 14
23 25 28 30 32 34 35 36 37 39 39 39 41 41 40 41 34 33 36 33 33 32 32 31 30 30 31 29 29 31 32 34 35 33 30 27 25 24 22 22 20 19 18
24 27 29 32 33 35 36 37 38 40 39 38 41 43 43 41 35 31 33 36 40 37 36 34 33 33 33 33 34 34 32 34 36 37 38 33 30 28 26 25 24 22 21
26 28 30 32 34 35 37 38 38 39 41 38 37 37 43 42 45 41 40 40 40 38 39 38 38 38 38 37 37 37 36 34 34 35 38 40 36 33 31 29 28 26 25
27 29 30 33 35 36 38 38 38 38 39 41 38 37 38 42 49 53 42 42 43 44 44 43 42 41 39 39 39 39 37 34 35 36 37 39 41 40 35 33 31 30 28
27 29 32 34 36 37 38 39 39 38 38 40 40 41 41 42 43 49 56 48 44 42 42 42 42 41 39 39 40 40 41 40 38 37 38 39 39 41 41 36 34 33 31
31 32 33 36 38 39 39 39 39 39 39 39 40 40 41 44 45 47 52 52 51 47 44 43 42 41 41 40 41 41 43 43 41 39 39 39 40 40 42 43 38 36 34
34 36 38 39 40 39 39 39 39 39 39 40 40 41 40 42 42 44 48 52 53 49 47 44 43 42 42 41 40 41 42 43 45 44 43 41 41 40 40 44 43 40 37
37 39 40 40 40 40 39 39 39 39 39 40 40 40 41 40 40 40 44 48 54 52 47 46 39 39 39 39 39 41 42 44 44 43 42 43 42 41 41 42 44 44 41
39 39 40 40 40 40 40 40 40 41 40 40 40 40 40 39 38 38 38 39 44 53 51 43 43 38 38 36 35 35 37 39 42 43 43 43 42 42 43 42 43 45 44
39 40 40 40 41 41 41 41 41 41 41 40 39 40 39 38 38 38 38 38 39 43 52 42 41 40 39 38 37 36 36 39 42 42 41 41 41 41 42 44 44 45 45
40 41 41 42 42 43 42 42 42 42 41 41 39 39 39 37 38 36 35 34 35 33 38 42 39 39 41 41 39 35 35 35 36 40 40 39 41 43 45 46 46 46 47
41 42 43 43 44 44 43 43 43 42 42 40 38 37 36 34 34 30 29 30 29 28 32 44 39 37 37 41 41 40 34 34 35 33 37 37 40 42 45 47 48 47 46
42 43 44 44 45 44 44 42 41 40 38 37 36 35 34 33 33 31 29 29 28 28 27 36 40 34 35 33 36 39 38 36 36 39 41 41 39 41 45 47 48 48 47
43 44 44 44 44 43 42 39 38 37 36 35 34 34 32 31 29 27 27 26 28 31 30 30 33 34 32 32 31 31 34 36 34 33 34 38 39 42 48 49 48 48 47
43 43 44 42 41 40 38 37 36 37 36 36 34 31 29 26 23 23 24 25 27 29 29 30 31 31 31 30 29 28 30 31 33 32 31 32 34 37 43 45 47 47 47
43 41 39 40 40 37 35 36 36 36 34 32 32 33 35 38 33 33 27 35 25 28 27 28 29 29 30 28 27 27 29 32 32 27 33 34 32 35 36 38 41 44 45
40 39 40 38 37 36 35 35 34 35 35 32 33 37 40 39 40 46 47 51 51 41 36 26 27 28 30 27 24 25 28 34 35 34 35 38 35 39 37 37 40 41 44
39 40 39 37 37 36 37 35 38 37 34 36 38 40 45 44 42 45 35 30 30 30 32 32 29 25 27 29 26 29 32 33 34 35 35 40 36 37 37 39 36 39 41
39 39 38 37 37 36 34 38 38 37 35 37 40 38 44 44 44 41 40 40 27 24 21 21 22 21 20 21 26 30 33 34 37 36 34 38 37 37 36 37 36 38 39
38 36 34 34 33 33 34 38 33 35 35 38 42 38 43 42 39 39 39 36 23 16 13 15 19 20 21 14 15 20 26 30 31 33 32 35 35 34 35 34 34 36 39
Wind_Direction
0 358 354 350 346 342 338 334 331 328 325 323 321 318 315 312 309 308 308 311 312 309 306 306 305 306 306 307 309 314 317 318 314 313 313 312 311 314 332 348 359 7 21
360 356 353 349 346 343 338 335 331 328 325 322 319 317 315 314 312 310 309 307 309 309 307 304 303 302 301 301 300 301 303 305 307 305 303 304 303 292 295 311 324 336 346
355 353 349 346 342 340 337 335 331 328 325 323 320 318 317 314 313 311 310 309 308 309 309 307 302 299 298 297 297 295 295 295 295 298 297 294 292 291 279 280 293 303 311
349 347 344 342 340 338 336 334 331 327 324 322 319 318 316 314 312 311 310 309 308 306 306 305 303 301 298 294 294 293 291 290 287 287 289 291 289 286 276 268 270 278 285
347 344 342 340 339 337 335 333 330 328 324 322 320 318 316 315 313 312 309 308 308 306 306 305 304 302 300 296 293 290 289 286 285 281 281 283 284 282 277 265 261 264 268
342 340 338 337 336 334 332 330 327 326 323 320 317 314 315 314 311 310 309 310 309 308 306 305 303 303 301 298 296 291 287 285 282 280 275 275 276 279 277 266 259 257 260
335 334 333 332 332 330 328 328 326 323 322 322 316 314 313 312 313 312 309 310 310 309 306 303 302 302 300 298 296 295 289 285 282 279 274 271 270 271 273 269 261 255 255
331 331 330 329 329 327 327 326 324 322 321 322 317 315 311 312 313 317 314 310 306 305 304 302 300 299 298 296 294 293 290 287 283 278 275 271 268 267 267 267 263 257 254
327 327 327 327 326 326 324 323 323 321 318 319 318 315 312 308 309 308 308 307 305 303 302 300 298 297 295 293 291 289 287 285 283 281 276 272 269 265 264 264 263 259 255
324 325 325 326 325 324 322 322 322 320 318 315 316 313 309 308 305 303 305 303 302 300 299 298 296 295 294 292 290 288 285 284 283 281 278 274 269 267 262 261 261 259 256
323 324 324 324 322 322 321 320 319 318 316 314 313 312 309 308 306 303 301 302 301 299 299 298 297 296 294 292 290 288 285 283 280 279 277 275 272 267 264 260 259 259 256
320 321 322 321 321 320 319 318 317 315 314 313 312 310 308 306 305 303 301 300 299 300 299 297 295 294 293 291 289 287 284 282 280 278 276 274 272 269 263 262 258 256 256
318 319 319 319 319 319 318 317 316 314 314 312 311 309 308 306 305 303 301 299 298 299 298 297 296 294 292 291 289 287 285 282 279 275 273 272 271 268 266 260 259 256 254
317 318 318 318 318 318 318 317 315 314 313 311 310 309 307 306 305 304 301 300 298 297 297 297 298 295 293 291 288 286 286 283 280 275 270 269 268 266 264 262 257 256 254
318 318 318 318 317 317 316 315 314 313 312 311 310 309 308 307 305 304 302 301 299 297 295 297 297 299 298 296 292 289 287 284 278 275 270 267 264 264 261 260 257 254 253
318 318 318 317 317 316 316 315 313 312 311 310 310 308 308 307 306 304 302 300 299 297 294 296 295 296 296 295 292 290 288 285 281 279 274 266 261 261 260 257 256 253 251
318 318 317 317 316 315 315 313 312 312 310 309 309 309 308 307 305 303 301 299 297 296 295 295 295 294 291 290 290 292 290 287 283 277 273 267 263 260 258 255 253 252 249
318 318 317 316 316 315 314 313 312 311 310 309 310 309 308 308 305 304 301 298 296 296 296 289 292 292 291 286 285 287 292 288 284 280 273 269 263 258 255 253 251 250 248
319 319 318 317 316 315 314 313 313 312 311 310 310 309 308 307 305 303 300 298 296 295 294 292 291 294 293 296 291 285 286 287 282 276 272 268 265 262 256 252 250 247 246
320 319 318 317 317 316 316 316 314 313 311 310 309 308 307 305 302 299 297 293 293 292 292 291 292 292 293 295 292 288 285 282 282 279 276 270 266 261 255 251 248 246 245
321 320 320 320 321 321 320 318 316 314 312 311 310 308 305 297 285 284 291 290 290 288 288 288 289 290 290 292 289 287 284 283 279 280 277 274 270 263 256 252 246 244 242
323 323 323 323 322 322 321 319 316 315 314 314 314 313 311 307 305 256 257 251 275 285 272 279 281 281 282 284 286 283 283 280 278 277 273 273 269 264 259 251 245 242 241
326 325 325 325 324 324 323 321 320 318 318 318 317 314 311 310 306 297 294 287 282 289 287 277 272 277 280 278 276 280 282 276 273 274 272 268 267 260 258 253 246 243 239
328 328 328 327 326 326 324 323 320 319 321 319 316 313 309 308 307 304 305 299 295 288 288 288 288 279 279 282 273 276 278 276 276 273 271 263 263 259 256 250 248 242 239
330 329 329 329 328 328 327 323 321 321 322 320 317 317 316 312 309 309 307 304 290 284 288 286 289 286 279 265 270 274 272 270 270 268 266 260 259 257 255 249 246 243 240
331 332 333 333 333 332 330 323 328 326 325 323 320 320 318 314 314 314 312 311 309 295 292 295 299 295 289 264 250 256 271 268 268 266 267 259 258 254 253 249 246 242 237